Location: Coupvray
(48.8929°N, 2.7967°E)
Time: 10:55:51
(UTC+00:00)

BREEZE-M DEB (TANK) - Pass Details

Date: 14 July 2020
Orbit: 274 x 20503 km, 49.2° (Epoch: 05 August)

Event Time Altitude Azimuth Distance (km) Brightness Sun altitude
Exits shadow 01:56:28 13° 269° (W) 1,306 4.4 -14.4°
Maximum altitude 01:58:44 42° 197° (SSW) 886 3.4 -14.3°
Drops below altitude 10° 02:05:50 10° 129° (SE) 3,976 7.1 -13.7°
Sets 02:12:35 0° 126° (SE) 6,988 8.4 -13.1°
